Location: ????????
(56.1167°N, 38.6333°E)
Time: 21:36:27
(UTC+00:00)

Geosat FO - Pass Details

Date: 18 November 2025
Orbit: 360 x 445 km, 108.0° (Epoch: 14 December)

Event Time Altitude Azimuth Distance (km) Brightness Sun altitude
Rises 13:34:20 0° 103° (ESE) 2,198 7.5 -3.5°
Reaches altitude 10° 13:36:38 10° 82° (E) 1,354 6.3 -3.7°
Drops below altitude 10° 13:40:36 10° 354° (N) 1,367 6.6 -4.2°
Enters shadow 14:47:10 -42° 144° (SE) 9,149 10.9 -12.8°
Maximum altitude 15:09:12 67° 237° (WSW) 398 4.3 -15.8°
